TimeEST,TemperatureF,Dew PointF,Humidity,Sea Level PressureIn,VisibilityMPH,Wind Direction,Wind SpeedMPH,Gust SpeedMPH,PrecipitationIn,Events,Conditions,WindDirDegrees,DateUTC
12:15 AM,27.1,22.8,84,30.34,10.0,Calm,Calm,-,N/A,,Scattered Clouds,0,2013-11-22 05:15:00
12:35 AM,27.5,23.5,85,30.33,10.0,Calm,Calm,-,N/A,,Clear,0,2013-11-22 05:35:00
12:55 AM,27.7,23.0,83,30.32,10.0,Calm,Calm,-,N/A,,Scattered Clouds,0,2013-11-22 05:55:00
1:15 AM,27.3,23.0,84,30.32,10.0,Calm,Calm,-,N/A,,Scattered Clouds,0,2013-11-22 06:15:00
1:35 AM,26.4,22.1,84,30.32,10.0,Calm,Calm,-,N/A,,Clear,0,2013-11-22 06:35:00
1:55 AM,26.6,23.0,86,30.32,10.0,Calm,Calm,-,N/A,,Clear,0,2013-11-22 06:55:00
2:15 AM,27.1,23.9,88,30.31,10.0,Calm,Calm,-,N/A,,Clear,0,2013-11-22 07:15:00
2:35 AM,27.3,23.9,87,30.31,10.0,Calm,Calm,-,N/A,,Clear,0,2013-11-22 07:35:00
2:55 AM,27.5,23.5,85,30.30,10.0,Calm,Calm,-,N/A,,Scattered Clouds,0,2013-11-22 07:55:00
3:15 AM,27.7,23.9,86,30.29,10.0,Calm,Calm,-,N/A,,Scattered Clouds,0,2013-11-22 08:15:00
3:35 AM,28.0,23.2,82,30.29,10.0,Calm,Calm,-,N/A,,Scattered Clouds,0,2013-11-22 08:35:00
3:55 AM,28.2,23.9,84,30.28,10.0,Calm,Calm,-,N/A,,Mostly Cloudy,0,2013-11-22 08:55:00
4:15 AM,28.4,23.9,83,30.27,10.0,Calm,Calm,-,N/A,,Overcast,0,2013-11-22 09:15:00
4:35 AM,28.8,23.9,82,30.27,10.0,Calm,Calm,-,N/A,,Mostly Cloudy,0,2013-11-22 09:35:00
4:55 AM,29.1,24.1,81,30.25,10.0,Calm,Calm,-,N/A,,Overcast,0,2013-11-22 09:55:00
5:15 AM,29.3,23.7,80,30.25,10.0,Calm,Calm,-,N/A,,Overcast,0,2013-11-22 10:15:00
5:35 AM,29.3,24.1,81,30.25,10.0,Calm,Calm,-,N/A,,Overcast,0,2013-11-22 10:35:00
5:55 AM,29.5,24.3,81,30.25,10.0,Calm,Calm,-,N/A,,Overcast,0,2013-11-22 10:55:00
6:15 AM,29.7,24.1,80,30.25,10.0,Calm,Calm,-,N/A,,Overcast,0,2013-11-22 11:15:00
6:35 AM,29.7,23.7,79,30.24,7.0,Calm,Calm,-,N/A,Snow,Light Snow,0,2013-11-22 11:35:00
6:55 AM,29.3,24.8,83,30.24,7.0,Calm,Calm,-,N/A,Snow,Light Snow,0,2013-11-22 11:55:00
7:15 AM,29.5,25.0,83,30.23,7.0,Calm,Calm,-,N/A,,Overcast,0,2013-11-22 12:15:00
7:35 AM,29.7,25.7,85,30.23,7.0,Calm,Calm,-,N/A,Snow,Light Snow,0,2013-11-22 12:35:00
7:55 AM,29.8,26.4,87,30.22,5.0,Calm,Calm,-,N/A,Snow,Light Snow,0,2013-11-22 12:55:00
8:15 AM,29.8,26.8,88,30.22,2.5,Calm,Calm,-,N/A,Snow,Light Snow,0,2013-11-22 13:15:00
8:35 AM,29.8,27.1,90,30.21,2.0,Calm,Calm,-,N/A,Snow,Light Snow,0,2013-11-22 13:35:00
8:55 AM,30.0,27.5,90,30.20,2.0,Calm,Calm,-,N/A,Snow,Light Snow,0,2013-11-22 13:55:00
9:15 AM,30.2,28.0,92,30.19,5.0,Calm,Calm,-,N/A,Snow,Light Snow,0,2013-11-22 14:15:00
9:35 AM,31.3,28.6,90,30.18,10.0,Calm,Calm,-,N/A,,Overcast,0,2013-11-22 14:35:00
9:55 AM,31.6,29.1,90,30.16,10.0,Calm,Calm,-,N/A,,Overcast,0,2013-11-22 14:55:00
10:15 AM,31.8,29.3,90,30.15,10.0,Calm,Calm,-,N/A,,Overcast,0,2013-11-22 15:15:00
10:35 AM,32.0,30.0,92,30.14,2.0,Calm,Calm,-,0.01,,Overcast,0,2013-11-22 15:35:00
10:55 AM,32.2,30.9,95,30.13,5.0,Calm,Calm,-,0.01,Rain,Light Rain,0,2013-11-22 15:55:00
11:15 AM,32.4,31.5,96,30.13,4.0,Calm,Calm,-,N/A,Rain,Light Rain,0,2013-11-22 16:15:00
11:35 AM,32.4,31.8,98,30.11,3.0,Calm,Calm,-,0.01,,Drizzle,0,2013-11-22 16:35:00
11:55 AM,32.5,32.0,98,30.09,3.0,Calm,Calm,-,0.01,,Overcast,0,2013-11-22 16:55:00
12:15 PM,33.1,32.2,96,30.07,3.0,Calm,Calm,-,0.01,Rain,Rain,0,2013-11-22 17:15:00
12:35 PM,-9999,-9999,N/A,-9999,-9999.0,North,-9999.0,-,N/A,,Unknown,0,2013-11-22 17:35:00
12:55 PM,-9999,-9999,N/A,-9999,-9999.0,North,-9999.0,-,N/A,,Unknown,0,2013-11-22 17:55:00
1:15 PM,-9999,-9999,N/A,-9999,-9999.0,North,-9999.0,-,N/A,,Unknown,0,2013-11-22 18:15:00
1:35 PM,-9999,-9999,N/A,-9999,-9999.0,North,-9999.0,-,N/A,,Unknown,0,2013-11-22 18:35:00
1:55 PM,36.1,33.8,91,30.02,7.0,Calm,Calm,-,N/A,,Unknown,0,2013-11-22 18:55:00
2:15 PM,34.2,33.1,96,30.01,5.0,Calm,Calm,-,N/A,,Overcast,0,2013-11-22 19:15:00
2:35 PM,34.2,33.3,97,30.02,4.0,Calm,Calm,-,N/A,,Overcast,0,2013-11-22 19:35:00
2:55 PM,34.2,33.4,97,30.00,3.0,Calm,Calm,-,N/A,,Overcast,0,2013-11-22 19:55:00
3:15 PM,34.2,33.8,99,29.99,5.0,Calm,Calm,-,N/A,,Overcast,0,2013-11-22 20:15:00
3:35 PM,34.3,33.8,98,29.98,3.0,Calm,Calm,-,N/A,,Overcast,0,2013-11-22 20:35:00
3:55 PM,34.2,33.8,99,29.97,3.0,Calm,Calm,-,N/A,,Overcast,0,2013-11-22 20:55:00
4:15 PM,34.0,33.4,98,29.97,2.0,Calm,Calm,-,N/A,,Overcast,0,2013-11-22 21:15:00
4:35 PM,34.0,33.4,98,29.97,2.5,Calm,Calm,-,N/A,,Overcast,0,2013-11-22 21:35:00
4:55 PM,33.8,33.3,98,29.96,2.5,Calm,Calm,-,N/A,,Overcast,0,2013-11-22 21:55:00
5:15 PM,33.8,33.3,98,29.96,2.0,Calm,Calm,-,N/A,,Overcast,0,2013-11-22 22:15:00
5:35 PM,33.4,33.1,99,29.95,2.0,Calm,Calm,-,N/A,,Overcast,0,2013-11-22 22:35:00
5:55 PM,33.3,33.1,99,29.94,1.0,Calm,Calm,-,N/A,,Overcast,0,2013-11-22 22:55:00
6:15 PM,33.4,33.3,99,29.93,1.2,Calm,Calm,-,N/A,,Overcast,0,2013-11-22 23:15:00
6:35 PM,33.4,33.3,99,29.91,1.2,Calm,Calm,-,N/A,,Overcast,0,2013-11-22 23:35:00
6:55 PM,33.4,33.3,99,29.90,1.0,Calm,Calm,-,N/A,,Overcast,0,2013-11-22 23:55:00
7:15 PM,33.3,33.1,99,29.91,0.8,Calm,Calm,-,N/A,,Overcast,0,2013-11-23 00:15:00
7:35 PM,33.1,32.9,99,29.88,0.5,Calm,Calm,-,N/A,Fog,Fog,0,2013-11-23 00:35:00
7:55 PM,33.4,33.3,99,29.88,0.5,Calm,Calm,-,N/A,Fog,Fog,0,2013-11-23 00:55:00
8:15 PM,33.3,33.1,99,29.87,0.5,Calm,Calm,-,N/A,Fog,Fog,0,2013-11-23 01:15:00
8:35 PM,33.3,33.1,99,29.86,0.5,Calm,Calm,-,N/A,Fog,Fog,0,2013-11-23 01:35:00
8:55 PM,33.3,33.3,100,29.85,0.5,Calm,Calm,-,N/A,Fog,Fog,0,2013-11-23 01:55:00
9:15 PM,33.1,33.1,100,29.85,0.5,Calm,Calm,-,N/A,Fog,Fog,0,2013-11-23 02:15:00
9:35 PM,33.3,33.3,100,29.84,0.5,Calm,Calm,-,N/A,Fog,Fog,0,2013-11-23 02:35:00
9:55 PM,33.1,33.1,100,29.82,0.5,Calm,Calm,-,N/A,Rain,Light Rain,0,2013-11-23 02:55:00
10:15 PM,33.1,33.1,100,29.82,0.5,Calm,Calm,-,N/A,Fog,Fog,0,2013-11-23 03:15:00
10:35 PM,33.1,33.1,100,29.81,0.5,Calm,Calm,-,N/A,Fog,Fog,0,2013-11-23 03:35:00
10:55 PM,33.1,33.1,100,29.81,0.5,West,3.5,-,N/A,Fog,Fog,280,2013-11-23 03:55:00
11:15 PM,33.4,33.4,100,29.79,1.5,Calm,Calm,-,N/A,,Overcast,0,2013-11-23 04:15:00
11:35 PM,33.1,33.1,100,29.78,0.8,Calm,Calm,-,N/A,,Overcast,0,2013-11-23 04:35:00
11:55 PM,33.3,33.3,100,29.78,1.0,Calm,Calm,-,N/A,,Overcast,0,2013-11-23 04:55:00